Regional Weather Roundup
Issued by NWS

Home | Current Version | Previous Version | Text Only | Print | Product List | Glossary On
Versions: 1 2 3 4 5 6 7 8 9 10 11 12 13 14 15 16 17 18 19 20 21 22 23 24 25 26 27
000
ASUS42 KKEY 240610
RWRKEY

FLORIDA REGIONAL WEATHER ROUNDUP FOR THE FLORIDA KEYS
NATIONAL WEATHER SERVICE KEY WEST FLORIDA
200 AM EDT WED AUG 24 2016

...SOUTH FLORIDA AND THE KEYS...

CITY           SKY/WX    TMP DP  RH WIND       PRES   REMARKS
FORT MYERS     CLEAR     80  75  84 NE5       30.09F
SW REGIONAL AP CLEAR     80  74  81 N5        30.09F
NAPLES         CLEAR     81  76  84 NE5       30.09S
MIAMI          MOCLDY    85  78  80 NE8       30.06F HX  96
WEST KENDALL   CLEAR     84  77  79 NE7       30.05F HX  94
HOMESTEAD      CLEAR     84  77  80 NE10      30.04F HX  93
MARATHON       PTCLDY    87  76  69 NE13      30.05F HX  97
BOCA CHICA NAS CLOUDY     2  50 100 NE7       30.06F WCI -11
KEY WEST INTL  PTCLDY    80  78  94 NE5       30.06F

...INTERNATIONAL WEATHER...

CITY           SKY/WX    TMP DP  RH WIND       PRES   REMARKS
NASSAU BAHAMAS NOT AVBL
CANCUN MEXICO  LGT RAIN  81  77  89 E6        30.07S
COZUMEL MEXICO PTCLDY    77  77 100 N5        30.05F

ADJACENT COASTAL WATERS...

STATION/POSITION TIME  SKY/WX   TEMP    WIND        PRES    WAVE
                                AIR SEA DIR/SP/G            HT/PER
                 (UTC)          (F)     (DEG/KT/KT) (MB)    (FT/S)
PULASKI SHOAL LI 0600            86      50/ 10/ 11 1018.3F
SAND KEY         0550            85      80/ 11/ 12 1018.3F
LONG KEY         0600            86 90   70/ 14/ 16 1018.1F
FOWEY ROCKS      0600            85 87   40/ 16/ 18 1018.1F

$$




USA.gov is the U.S. government's official web portal to all federal, state and local government web resources and services.